Die Mitgliedschaft ist kostenlos – mit vollem Zugang zu allen Funktionen; Upgrades bieten Extras wie Bannerwerbung und Newsletter-Platzierungen. ✅ Signatur-Links sind jetzt für alle frei. Teilen Sie Ihre eigenen Gedanken und Erfahrungen; bei Verstößen können Konten geschlossen werden.

Willkommen!

Durch Ihre Registrierung bei uns können Sie mit anderen Mitgliedern unserer Community diskutieren, teilen und private Nachrichten austauschen.

Jetzt anmelden!

Live-Überblick: .DE-Domainauktionen

Möchten Sie eine Premium-Domain .DE kaufen? Unser Live-Auktionsfeed für Domains bietet Ihnen eine einfache Möglichkeit, die perfekte Webadresse für Ihr Unternehmen zu sichern. Mit einer großen Auswahl an Angeboten finden Sie Domains mit SEO-Potenzial, Markenfähigkeit und hoher Wiedererkennbarkeit.

Seien Sie dabei und bieten Sie auf Ihre Wunsch-Domain .DE! Consultdomain.de-Mitglieder können unsere Plattform nutzen, um wertvolle Domains zu finden und in Echtzeit zu konkurrieren. Verpassen Sie nicht diese spannende Gelegenheit, Ihre Online-Präsenz zu stärken.

Live 13.832 auctions 0 selected
Sammlungen
Domain DL Current bid Gebote Ends in Plattform REC RE WFAY DW
systemoutspeak.de 14 0,00€ 0 Sep. 14, 19:00 0 2
tausendeuroauto.de 15 0,00€ 0 Sep. 14, 19:00 0 4
taxigeissler.de 12 0,00€ 0 Sep. 14, 19:00 0 3
taxlight.de 8 0,00€ 0 Sep. 14, 19:00 3 .app .com .net 2
tcgbandits.de 10 0,00€ 0 Sep. 14, 19:00 1 .com 2
teamindia.de 9 0,00€ 0 Sep. 14, 19:00 9 .co.uk .com .cricket 2
technochip.de 10 0,00€ 0 Sep. 14, 19:00 2 .co.uk .com 3
tempoworks.de 10 0,00€ 0 Sep. 14, 19:00 18 .app .bot .cfd 2
teradici.de 8 0,00€ 0 Sep. 14, 19:00 1 .com 3
terali.de 6 0,00€ 0 Sep. 14, 19:00 5 .app .cloud .com 2
textographie.de 12 0,00€ 0 Sep. 14, 19:00 0 4
thbrb.de 5 0,00€ 0 Sep. 14, 19:00 0 2
theartbar.de 9 0,00€ 0 Sep. 14, 19:00 5 .co.uk .com .de 3
thebookpill.de 11 0,00€ 0 Sep. 14, 19:00 5 .com .de .info 3
thebusinessforge.de 16 0,00€ 0 Sep. 14, 19:00 2 .com .de 3
themword.de 8 0,00€ 0 Sep. 14, 19:00 11 .co.uk .com .de 2
thenotifier.de 11 0,00€ 0 Sep. 14, 19:00 5 .app .cloud .com 2
theprintery.de 11 0,00€ 0 Sep. 14, 19:00 7 .biz .co.uk .com 2
theuptimepeople.de 15 0,00€ 0 Sep. 14, 19:00 1 .com 3
thorbenwassmuth.de 15 0,00€ 0 Sep. 14, 19:00 0 5
thyliftgroup.de 12 0,00€ 0 Sep. 14, 19:00 1 .com 3
tiefenpsychologisch.de 19 0,00€ 0 Sep. 14, 19:00 2 .com .de 5
timeislimited.de 13 0,00€ 0 Sep. 14, 19:00 3 .com .de .shop 3
tobiasadolph.de 12 0,00€ 0 Sep. 14, 19:00 0 2
toetungsethik.de 13 0,00€ 0 Sep. 14, 19:00 0 4
tofutheke.de 9 0,00€ 0 Sep. 14, 19:00 0 3
touchdownshop.de 13 0,00€ 0 Sep. 14, 19:00 3 .com .de .fr 2
toxicfloods.de 11 0,00€ 0 Sep. 14, 19:00 2 .de .org 2
trapstore.de 9 0,00€ 0 Sep. 14, 19:00 5 .com .de .fr 2
traumdomizil.de 12 0,00€ 0 Sep. 14, 19:00 2 .de .immobilien 0
traveltobefree.de 14 0,00€ 0 Sep. 14, 19:00 1 .com 3
treeclub.de 8 0,00€ 0 Sep. 14, 19:00 10 .co.uk .com .de 2
truemiles.de 9 0,00€ 0 Sep. 14, 19:00 3 .co.uk .com .de 2
trumpetcamp.de 11 0,00€ 0 Sep. 14, 19:00 2 .com .de 2
tsfliesenleger.de 14 0,00€ 0 Sep. 14, 19:00 0 4
tueffelhus.de 10 0,00€ 0 Sep. 14, 19:00 0 4
tukandesign.de 11 0,00€ 0 Sep. 14, 19:00 2 .com .de 3
tumorzentrumkoeln.de 17 0,00€ 0 Sep. 14, 19:00 0 0
tvehandball.de 11 0,00€ 0 Sep. 14, 19:00 0 0
twiitr.de 6 0,00€ 0 Sep. 14, 19:00 3 .com .de .xyz 0
ukulicious.de 10 0,00€ 0 Sep. 14, 19:00 2 .com .de 0
unasd.de 5 0,00€ 0 Sep. 14, 19:00 2 .com .org 2
unitedluxury.de 12 0,00€ 0 Sep. 14, 19:00 18 .bid .club .co.uk 2
upunitedpersonal.de 16 0,00€ 0 Sep. 14, 19:00 0 3
urlaubimclub.de 12 0,00€ 0 Sep. 14, 19:00 1 .com 4
vadoro.de 6 0,00€ 0 Sep. 14, 19:00 3 .com .de .shop 0
vegayran.de 8 0,00€ 0 Sep. 14, 19:00 1 .com 3
veranstalterbewertung.de 21 0,00€ 0 Sep. 14, 19:00 0 0
verbatech.de 9 0,00€ 0 Sep. 14, 19:00 3 .com .net .se 2
verkehrsausbildung.de 18 0,00€ 0 Sep. 14, 19:00 1 .info 0
vesselphotos.de 12 0,00€ 0 Sep. 14, 19:00 3 .co.uk .com .info 2
vfgg.de 4 0,00€ 0 Sep. 14, 19:00 7 .bar .com .info 0
vibratorshow.de 12 0,00€ 0 Sep. 14, 19:00 1 .com 2
vietscout.de 9 0,00€ 0 Sep. 14, 19:00 2 .com .net 2
vigneronschampenois.de 19 0,00€ 0 Sep. 14, 19:00 5 .com .fr .online 2
vinoduo.de 7 0,00€ 0 Sep. 14, 19:00 2 .com .se 2
viraledge.de 9 0,00€ 0 Sep. 14, 19:00 20 .agency .buzz .click 2
visitsetubal.de 12 0,00€ 0 Sep. 14, 19:00 1 .com 2
vividsky.de 8 0,00€ 0 Sep. 14, 19:00 10 .beer .co.uk .com 2
vneste.de 6 0,00€ 0 Sep. 14, 19:00 1 .com 2
voltswerk.de 9 0,00€ 0 Sep. 14, 19:00 2 .co.uk .com 3
vonavia.de 7 0,00€ 0 Sep. 14, 19:00 1 .com 2
vonovio.de 7 0,00€ 0 Sep. 14, 19:00 0 3
voraofficial.de 12 0,00€ 0 Sep. 14, 19:00 3 .com .shop .store 3
vslifecoaching.de 14 0,00€ 0 Sep. 14, 19:00 3 .com .de .net 3
vutrack.de 7 0,00€ 0 Sep. 14, 19:00 5 .biz .com .de 2
wattzumlaecheln.de 15 0,00€ 0 Sep. 14, 19:00 2 .com .de 0
websyo.de 6 0,00€ 0 Sep. 14, 19:00 2 .com .net 2
weckbaecker.de 11 0,00€ 0 Sep. 14, 19:00 0 0
wegemacherei.de 12 0,00€ 0 Sep. 14, 19:00 0 0
weinistkunst.de 12 0,00€ 0 Sep. 14, 19:00 3 .com .de .shop 4
weinliebtdesign.de 15 0,00€ 0 Sep. 14, 19:00 2 .com .de 4
weissmuller.de 11 0,00€ 0 Sep. 14, 19:00 2 .com .de 2
wemere.de 6 0,00€ 0 Sep. 14, 19:00 1 .com 2
werbegestalter.de 14 0,00€ 0 Sep. 14, 19:00 2 .com .de 3
wernerschopf.de 12 0,00€ 0 Sep. 14, 19:00 2 .com .de 3
werwillweb.de 10 0,00€ 0 Sep. 14, 19:00 0 3
wesdruck.de 8 0,00€ 0 Sep. 14, 19:00 0 0
whataphoto.de 10 0,00€ 0 Sep. 14, 19:00 3 .co.uk .com .de 2
willerin.de 8 0,00€ 0 Sep. 14, 19:00 2 .com .de 2
wirstickendas.de 13 0,00€ 0 Sep. 14, 19:00 0 3
wirtschafterleben.de 17 0,00€ 0 Sep. 14, 19:00 0 0
wirtschaftsguru.de 15 0,00€ 0 Sep. 14, 19:00 0 0
wissenai.de 8 0,00€ 0 Sep. 14, 19:00 2 .com .de 3
wklogistics.de 11 0,00€ 0 Sep. 14, 19:00 4 .co.uk .com .de 2
wohngo.de 6 0,00€ 0 Sep. 14, 19:00 1 .com 0
wolfgangnicolaus.de 16 0,00€ 0 Sep. 14, 19:00 2 .com .de 2
wolframkuehn.de 12 0,00€ 0 Sep. 14, 19:00 0 2
wollgewebematte.de 15 0,00€ 0 Sep. 14, 19:00 0 0
wollmatte.de 9 0,00€ 0 Sep. 14, 19:00 1 .com 2
wollmatten.de 10 0,00€ 0 Sep. 14, 19:00 3 .co.uk .com .org 3
woofactory.de 10 0,00€ 0 Sep. 14, 19:00 5 .com .de .fr 2
worldprofile.de 12 0,00€ 0 Sep. 14, 19:00 6 .com .de .info 2
wortgulasch.de 11 0,00€ 0 Sep. 14, 19:00 0 3
wortspender.de 11 0,00€ 0 Sep. 14, 19:00 2 .com .de 2
wortversand.de 11 0,00€ 0 Sep. 14, 19:00 1 .com 3
wortwunderreich.de 15 0,00€ 0 Sep. 14, 19:00 0 3
wowlabel.de 8 0,00€ 0 Sep. 14, 19:00 4 .app .co.uk .com 2
wreggo.de 6 0,00€ 0 Sep. 14, 19:00 3 .com .de .net 0
wronghands.de 10 0,00€ 0 Sep. 14, 19:00 3 .com .de .org 2
13.001–13.100 of 13.832
Zurück
Oben